Starlink 31373

operational
NORAD ID: 58965 Int'l Des: 2024-031 Owner: SPXS Country: US Constellation: starlink
LEOCIRCULAR

Über Starlink 31373

Beschreibung wird geladen...

Live-Position

3D-Globus wird geladen...

Nächste Überflüge

Höhenverlauf

Altitude vs Time

uPlot chart will show altitude changes over time

Zweizeiliger Elementsatz

1 58965U 24031A 25258.55611272 -.00000147 00000-0 71282-5 0 9992
2 58965 53.1624 29.8736 0000367 97.4430 262.6612 15.30194121 89722
Epoch: 15. Sept. 2025 • Age: 12 hours

Aktueller Status

Höhe 485.0 km
Geschwindigkeit 7.62 km/s
Subsatellitenpunkt -31.05°S, 20.13°W
Startdatum 15. Feb. 2024
Alter 1.5 years
Typ internet

Technische Details

Klassifizierung Payload
Masse 730.00 kg
Trockenmasse 700.00 kg
Gesamtmasse 730.00 kg
Länge 0.30 m
Durchmesser 4.10 m
Spannweite 29.00 m
Form Box + pan
Hersteller SPXS
Bus-Typ Starlink V2M
Phasenstatus In Orbit
Besitzer/Staat SPXS/US

Große Konstellationen

Loading constellations...